QPF
0.00 0.00 0.00 0.00 0.01 0.01 0.00 0.00 0.00 0.00 0.00 0.00 0.00 0.00 0.00 0.00 0.00 0.00 0.00 0.00 0.00 0.00 0.00 0.01 0.01 0.00 0.01 0.01 0.00 0.00 0.00 0.00 0.00 0.00 0.00 0.00 0.00 0.00 0.00 0.00 0.00 0.00 0.00
0.00 0.00 0.00 0.00 0.01 0.00 0.00 0.00 0.00 0.00 0.00 0.00 0.00 0.00 0.00 0.00 0.00 0.00 0.00 0.00 0.00 0.00 0.00 0.00 0.00 0.00 0.00 0.00 0.00 0.00 0.00 0.00 0.00 0.00 0.00 0.00 0.00 0.00 0.00 0.00 0.00 0.00 0.00
0.00 0.00 0.00 0.00 0.00 0.00 0.00 0.00 0.00 0.00 0.00 0.00 0.00 0.00 0.00 0.00 0.00 0.00 0.00 0.00 0.00 0.00 0.00 0.00 0.00 0.00 0.00 0.00 0.00 0.00 0.00 0.00 0.00 0.00 0.00 0.00 0.00 0.00 0.00 0.00 0.00 0.00 0.00
0.00 0.00 0.00 0.00 0.00 0.00 0.00 0.00 0.00 0.00 0.00 0.00 0.00 0.00 0.00 0.00 0.00 0.00 0.00 0.00 0.00 0.00 0.00 0.00 0.00 0.00 0.00 0.00 0.00 0.00 0.00 0.00 0.00 0.00 0.00 0.00 0.00 0.00 0.00 0.00 0.00 0.00 0.00
0.00 0.00 0.00 0.00 0.00 0.00 0.00 0.00 0.00 0.00 0.00 0.00 0.00 0.00 0.00 0.00 0.00 0.00 0.00 0.00 0.00 0.00 0.00 0.00 0.00 0.00 0.00 0.00 0.00 0.00 0.00 0.00 0.00 0.00 0.00 0.00 0.00 0.00 0.00 0.00 0.00 0.00 0.00
0.00 0.00 0.00 0.00 0.00 0.00 0.00 0.00 0.00 0.00 0.00 0.00 0.00 0.00 0.00 0.00 0.01 0.01 0.00 0.00 0.00 0.00 0.00 0.00 0.00 0.00 0.00 0.00 0.00 0.00 0.00 0.00 0.00 0.00 0.00 0.00 0.00 0.00 0.00 0.00 0.00 0.00 0.00
0.00 0.00 0.00 0.00 0.00 0.00 0.00 0.00 0.00 0.00 0.00 0.00 0.00 0.00 0.00 0.00 0.00 0.01 0.00 0.00 0.00 0.00 0.00 0.00 0.00 0.00 0.00 0.00 0.00 0.00 0.00 0.00 0.00 0.00 0.00 0.00 0.00 0.00 0.00 0.00 0.00 0.00 0.00
0.00 0.00 0.00 0.00 0.00 0.00 0.00 0.00 0.00 0.00 0.00 0.00 0.00 0.00 0.00 0.00 0.00 0.00 0.00 0.00 0.00 0.00 0.00 0.00 0.00 0.00 0.00 0.00 0.00 0.00 0.00 0.00 0.00 0.00 0.00 0.00 0.00 0.00 0.00 0.00 0.00 0.00 0.00
0.00 0.00 0.00 0.00 0.00 0.00 0.00 0.00 0.00 0.00 0.00 0.00 0.00 0.00 0.00 0.00 0.00 0.00 0.00 0.00 0.00 0.00 0.00 0.00 0.00 0.00 0.00 0.00 0.00 0.00 0.00 0.00 0.00 0.00 0.00 0.00 0.00 0.00 0.00 0.00 0.00 0.00 0.00
0.00 0.00 0.00 0.00 0.00 0.00 0.00 0.00 0.00 0.00 0.00 0.00 0.00 0.00 0.00 0.00 0.00 0.00 0.00 0.00 0.00 0.00 0.00 0.00 0.00 0.00 0.00 0.00 0.00 0.00 0.00 0.00 0.00 0.00 0.00 0.00 0.00 0.00 0.00 0.00 0.00 0.00 0.00
0.00 0.00 0.00 0.00 0.00 0.00 0.00 0.00 0.00 0.00 0.00 0.00 0.00 0.00 0.00 0.00 0.00 0.00 0.00 0.00 0.00 0.00 0.00 0.00 0.00 0.00 0.00 0.00 0.00 0.00 0.00 0.00 0.00 0.00 0.00 0.00 0.00 0.00 0.00 0.00 0.00 0.00 0.00
0.00 0.00 0.00 0.00 0.00 0.00 0.00 0.00 0.00 0.00 0.00 0.00 0.00 0.00 0.00 0.00 0.00 0.00 0.00 0.00 0.00 0.00 0.00 0.00 0.00 0.00 0.00 0.00 0.00 0.00 0.00 0.00 0.00 0.00 0.00 0.00 0.00 0.00 0.00 0.01 0.01 0.01 0.00
0.00 0.00 0.00 0.00 0.00 0.00 0.00 0.00 0.00 0.00 0.00 0.00 0.00 0.00 0.00 0.00 0.00 0.00 0.00 0.00 0.00 0.00 0.00 0.00 0.00 0.00 0.00 0.00 0.00 0.00 0.00 0.00 0.00 0.00 0.00 0.00 0.00 0.00 0.01 0.01 0.02 0.02 0.01
0.00 0.00 0.00 0.00 0.00 0.00 0.00 0.00 0.00 0.00 0.00 0.00 0.00 0.00 0.00 0.00 0.00 0.00 0.00 0.00 0.00 0.00 0.00 0.00 0.00 0.00 0.00 0.00 0.00 0.00 0.00 0.00 0.00 0.00 0.00 0.00 0.00 0.00 0.00 0.00 0.01 0.01 0.01
0.00 0.00 0.00 0.00 0.00 0.00 0.00 0.00 0.00 0.00 0.00 0.00 0.00 0.00 0.00 0.00 0.00 0.00 0.00 0.00 0.00 0.00 0.00 0.00 0.00 0.00 0.00 0.00 0.00 0.00 0.00 0.00 0.00 0.00 0.00 0.00 0.00 0.00 0.00 0.00 0.00 0.00 0.01
0.00 0.00 0.00 0.00 0.00 0.00 0.00 0.00 0.00 0.00 0.00 0.00 0.00 0.00 0.00 0.00 0.00 0.00 0.00 0.00 0.00 0.00 0.00 0.00 0.00 0.00 0.00 0.00 0.00 0.00 0.00 0.00 0.00 0.00 0.00 0.00 0.00 0.00 0.00 0.00 0.00 0.00 0.00
0.00 0.00 0.00 0.00 0.00 0.00 0.00 0.00 0.00 0.00 0.00 0.00 0.00 0.00 0.00 0.00 0.00 0.00 0.00 0.00 0.00 0.00 0.00 0.00 0.00 0.00 0.00 0.00 0.00 0.00 0.00 0.00 0.00 0.00 0.00 0.00 0.00 0.00 0.00 0.00 0.00 0.00 0.00
0.00 0.00 0.00 0.00 0.00 0.00 0.00 0.00 0.00 0.00 0.00 0.00 0.00 0.00 0.00 0.00 0.00 0.00 0.00 0.00 0.00 0.00 0.00 0.00 0.00 0.00 0.00 0.00 0.00 0.00 0.00 0.00 0.00 0.00 0.00 0.00 0.00 0.00 0.00 0.00 0.00 0.00 0.00
0.00 0.00 0.00 0.00 0.00 0.00 0.00 0.00 0.00 0.00 0.00 0.00 0.00 0.00 0.00 0.00 0.00 0.00 0.00 0.00 0.00 0.00 0.00 0.00 0.00 0.00 0.00 0.00 0.00 0.00 0.00 0.00 0.00 0.00 0.00 0.00 0.00 0.00 0.00 0.00 0.00 0.00 0.00
0.00 0.00 0.00 0.00 0.00 0.00 0.00 0.00 0.00 0.00 0.00 0.00 0.00 0.00 0.00 0.00 0.00 0.00 0.00 0.00 0.00 0.00 0.00 0.00 0.00 0.00 0.00 0.00 0.00 0.00 0.00 0.00 0.00 0.00 0.00 0.00 0.00 0.00 0.00 0.00 0.00 0.00 0.00
0.00 0.00 0.00 0.00 0.00 0.00 0.00 0.00 0.00 0.00 0.00 0.00 0.00 0.00 0.00 0.00 0.00 0.00 0.00 0.00 0.00 0.00 0.00 0.00 0.00 0.00 0.00 0.00 0.00 0.00 0.00 0.00 0.00 0.00 0.00 0.00 0.00 0.00 0.00 0.00 0.00 0.00 0.00
0.00 0.00 0.00 0.00 0.00 0.00 0.00 0.00 0.00 0.00 0.00 0.00 0.00 0.00 0.00 0.00 0.00 0.00 0.00 0.00 0.00 0.00 0.00 0.00 0.00 0.00 0.00 0.00 0.00 0.00 0.00 0.00 0.00 0.00 0.00 0.00 0.00 0.00 0.00 0.00 0.00 0.00 0.00
0.00 0.00 0.00 0.00 0.00 0.00 0.00 0.00 0.00 0.00 0.00 0.00 0.00 0.00 0.00 0.00 0.00 0.00 0.00 0.00 0.00 0.00 0.00 0.00 0.00 0.00 0.00 0.00 0.00 0.00 0.00 0.00 0.00 0.00 0.00 0.00 0.00 0.00 0.00 0.00 0.00 0.00 0.00
0.00 0.00 0.00 0.00 0.00 0.00 0.00 0.00 0.00 0.00 0.00 0.00 0.00 0.00 0.00 0.00 0.00 0.00 0.00 0.00 0.00 0.00 0.00 0.00 0.00 0.00 0.00 0.00 0.00 0.00 0.00 0.00 0.00 0.00 0.00 0.00 0.00 0.00 0.00 0.00 0.00 0.00 0.00
0.00 0.00 0.00 0.00 0.00 0.00 0.00 0.00 0.00 0.00 0.00 0.00 0.00 0.00 0.00 0.00 0.00 0.00 0.00 0.00 0.00 0.00 0.00 0.00 0.00 0.00 0.00 0.00 0.00 0.00 0.00 0.00 0.00 0.00 0.00 0.00 0.00 0.00 0.00 0.00 0.00 0.00 0.00
0.00 0.00 0.00 0.00 0.00 0.00 0.00 0.00 0.00 0.00 0.00 0.00 0.00 0.00 0.00 0.00 0.00 0.00 0.00 0.00 0.00 0.00 0.00 0.00 0.00 0.00 0.00 0.00 0.00 0.00 0.00 0.00 0.00 0.00 0.00 0.00 0.00 0.00 0.00 0.00 0.00 0.00 0.00
MSLP
1011.13 1010.78 1010.81 1011.17 1011.39 1011.61 1011.93 1012.25 1012.47 1012.65 1012.77 1012.82 1012.87 1013.04 1013.26 1013.46 1013.62 1013.77 1013.80 1013.83 1013.84 1013.87 1013.82 1013.81 1013.65 1013.56 1013.64 1013.58 1013.69 1013.75 1013.78 1013.76 1013.73 1013.74 1013.91 1013.95 1013.95 1013.76 1013.68 1013.63 1013.59 1013.79 1013.56
1010.40 1010.73 1010.85 1011.11 1011.36 1011.61 1011.87 1012.16 1012.42 1012.66 1012.82 1012.96 1012.98 1012.95 1013.11 1013.30 1013.42 1013.73 1013.83 1013.92 1013.86 1013.97 1014.00 1013.89 1013.81 1013.83 1013.91 1013.83 1013.82 1013.80 1013.82 1013.77 1013.81 1013.83 1013.88 1014.00 1013.91 1013.84 1013.66 1013.54 1013.54 1013.61 1013.45
1010.39 1010.66 1010.84 1011.19 1011.41 1011.62 1011.97 1012.28 1012.43 1012.66 1012.76 1012.91 1013.12 1013.13 1013.14 1013.19 1013.47 1013.78 1013.79 1013.92 1014.04 1014.05 1014.04 1013.98 1014.01 1013.94 1014.06 1014.03 1013.97 1013.88 1013.83 1013.82 1013.88 1013.88 1013.80 1013.98 1013.94 1013.72 1013.49 1013.43 1013.52 1013.41 1013.32
1010.20 1010.63 1010.78 1011.15 1011.49 1011.75 1011.98 1012.28 1012.48 1012.65 1012.83 1012.93 1013.03 1013.09 1013.13 1013.20 1013.42 1013.55 1013.77 1013.89 1013.94 1014.05 1014.07 1014.10 1014.07 1014.14 1014.14 1014.16 1014.09 1014.05 1013.85 1013.90 1013.97 1013.88 1013.95 1013.92 1013.88 1013.46 1013.06 1013.27 1013.51 1013.35 1013.19
1010.37 1010.55 1010.81 1011.10 1011.42 1011.77 1011.97 1012.23 1012.46 1012.70 1012.88 1013.03 1013.16 1013.22 1013.22 1013.14 1013.15 1013.23 1013.41 1013.74 1013.82 1014.05 1014.11 1014.16 1014.15 1014.22 1014.17 1014.19 1014.11 1014.00 1013.92 1013.84 1013.90 1013.90 1013.99 1013.90 1013.81 1013.53 1013.06 1013.08 1013.30 1013.24 1013.09
1010.47 1010.60 1010.88 1011.16 1011.38 1011.71 1011.99 1012.25 1012.52 1012.60 1012.88 1013.07 1013.19 1013.32 1013.25 1013.17 1013.16 1013.28 1013.28 1013.49 1013.77 1013.98 1014.14 1014.15 1014.22 1014.14 1014.13 1014.11 1014.03 1013.96 1013.93 1013.81 1013.86 1014.00 1013.99 1013.86 1013.80 1013.45 1013.06 1012.85 1013.10 1013.15 1013.06
1010.48 1010.57 1010.76 1011.14 1011.33 1011.70 1012.02 1012.23 1012.48 1012.62 1012.75 1013.11 1013.18 1013.25 1013.18 1013.10 1012.98 1013.18 1013.37 1013.60 1013.81 1013.91 1014.05 1014.07 1014.04 1014.04 1013.99 1013.92 1013.84 1013.75 1013.75 1013.70 1013.74 1013.88 1013.84 1013.73 1013.65 1013.32 1012.93 1012.69 1012.68 1012.72 1012.73
1010.18 1010.59 1010.88 1011.05 1011.25 1011.54 1011.90 1012.21 1012.44 1012.58 1012.73 1012.99 1013.11 1013.16 1013.18 1013.11 1013.12 1013.24 1013.50 1013.68 1013.73 1013.91 1013.89 1013.90 1013.90 1013.91 1013.78 1013.75 1013.65 1013.55 1013.50 1013.52 1013.49 1013.54 1013.49 1013.44 1013.26 1012.94 1012.73 1012.44 1012.35 1012.39 1012.47
1010.15 1010.50 1010.83 1011.07 1011.23 1011.46 1011.81 1012.12 1012.38 1012.59 1012.73 1012.85 1013.07 1013.12 1013.19 1013.20 1013.27 1013.35 1013.46 1013.70 1013.72 1013.81 1013.76 1013.75 1013.77 1013.66 1013.54 1013.47 1013.39 1013.27 1013.23 1013.18 1013.19 1013.22 1013.14 1013.01 1012.73 1012.47 1012.24 1012.13 1011.95 1011.82 1011.98
1010.34 1010.44 1010.76 1010.96 1011.16 1011.45 1011.62 1011.95 1012.28 1012.53 1012.61 1012.67 1013.00 1013.10 1013.13 1013.29 1013.34 1013.49 1013.58 1013.72 1013.64 1013.69 1013.63 1013.56 1013.53 1013.42 1013.31 1013.21 1013.09 1013.03 1013.00 1012.87 1012.83 1012.77 1012.68 1012.52 1012.25 1012.00 1011.79 1011.63 1011.49 1011.46 1011.41
1010.48 1010.44 1010.53 1010.86 1011.07 1011.30 1011.53 1011.80 1012.09 1012.38 1012.47 1012.61 1012.88 1012.96 1013.08 1013.35 1013.40 1013.45 1013.59 1013.54 1013.44 1013.42 1013.28 1013.25 1013.21 1013.11 1013.10 1013.00 1012.88 1012.76 1012.65 1012.56 1012.50 1012.37 1012.28 1011.94 1011.79 1011.52 1011.31 1011.11 1010.96 1010.90 1010.83
1010.29 1010.37 1010.39 1010.49 1010.89 1011.06 1011.33 1011.65 1011.98 1012.21 1012.37 1012.60 1012.83 1012.89 1013.18 1013.16 1013.38 1013.35 1013.39 1013.55 1013.37 1013.27 1013.17 1013.13 1013.09 1012.96 1012.83 1012.75 1012.59 1012.50 1012.45 1012.19 1012.12 1012.14 1011.97 1011.64 1011.32 1010.97 1010.74 1010.49 1010.43 1010.36 1010.30
1009.21 1009.91 1010.14 1010.20 1010.47 1010.78 1011.13 1011.48 1011.85 1012.12 1012.35 1012.57 1012.75 1012.84 1013.09 1013.12 1013.21 1013.37 1013.48 1013.65 1013.53 1013.35 1013.32 1013.26 1013.12 1012.99 1012.86 1012.81 1012.73 1012.57 1012.35 1012.14 1012.08 1011.99 1011.67 1011.49 1011.13 1010.76 1010.42 1010.15 1009.95 1009.80 1009.73
1009.06 1009.24 1009.56 1009.92 1010.17 1010.48 1010.68 1011.15 1011.50 1011.99 1012.31 1012.52 1012.61 1012.72 1012.99 1013.17 1013.27 1013.44 1013.28 1013.29 1013.35 1013.26 1013.27 1013.29 1013.24 1013.26 1013.22 1013.16 1013.10 1012.95 1012.69 1012.49 1012.34 1012.09 1011.91 1011.52 1011.21 1010.86 1010.51 1010.18 1009.80 1009.41 1009.12
1008.52 1008.63 1008.98 1009.46 1009.85 1010.19 1010.63 1010.88 1011.40 1011.73 1011.88 1012.15 1012.47 1012.58 1012.76 1012.92 1013.19 1013.26 1013.39 1013.48 1013.57 1013.48 1013.60 1013.67 1013.81 1013.77 1013.58 1013.34 1013.16 1013.08 1012.99 1012.81 1012.49 1012.13 1011.90 1011.55 1011.27 1010.95 1010.68 1010.25 1009.88 1009.42 1008.86
1007.79 1008.13 1008.49 1009.09 1009.48 1009.94 1010.45 1010.86 1011.19 1011.22 1011.57 1011.97 1012.10 1012.34 1012.45 1012.75 1013.18 1013.56 1013.76 1013.99 1014.13 1014.01 1014.05 1014.16 1014.17 1014.15 1014.13 1013.87 1013.58 1013.31 1013.20 1013.03 1012.74 1012.43 1012.13 1011.89 1011.50 1011.36 1010.97 1010.59 1010.30 1009.95 1009.56
1007.35 1007.73 1008.29 1008.80 1009.20 1009.65 1010.24 1010.75 1010.92 1010.96 1011.49 1011.99 1012.24 1012.49 1012.77 1013.02 1013.58 1014.00 1014.31 1014.60 1014.64 1014.37 1014.29 1014.32 1014.35 1014.34 1014.33 1014.15 1013.91 1013.58 1013.25 1013.08 1012.88 1012.70 1012.44 1012.24 1012.02 1011.72 1011.44 1011.02 1010.70 1010.47 1010.25
1007.45 1007.73 1008.20 1008.63 1009.18 1009.66 1010.08 1010.55 1010.92 1011.27 1011.76 1012.30 1012.77 1013.11 1013.30 1013.72 1014.14 1014.44 1014.84 1015.05 1014.97 1014.75 1014.75 1014.80 1014.82 1014.86 1014.84 1014.68 1014.30 1013.81 1013.60 1013.39 1013.15 1012.98 1012.80 1012.59 1012.37 1012.12 1011.85 1011.43 1011.28 1010.90 1010.57
1007.67 1007.88 1008.36 1008.69 1009.12 1009.69 1010.29 1010.85 1011.30 1011.72 1012.19 1012.87 1013.27 1013.63 1014.14 1014.39 1014.53 1014.77 1015.23 1015.34 1015.24 1015.31 1015.31 1015.34 1015.36 1015.37 1015.46 1015.06 1014.50 1013.97 1013.63 1013.59 1013.49 1013.14 1013.10 1012.78 1012.64 1012.44 1012.13 1011.79 1011.57 1011.34 1010.99
1007.82 1008.09 1008.34 1008.85 1009.37 1009.72 1010.51 1011.36 1012.02 1012.50 1013.11 1013.46 1014.00 1014.33 1014.52 1014.86 1014.99 1015.23 1015.57 1015.65 1015.66 1015.77 1015.85 1015.78 1015.78 1015.70 1015.72 1015.53 1014.75 1014.15 1013.66 1013.63 1013.55 1013.41 1013.18 1012.83 1012.59 1012.45 1012.28 1011.96 1011.68 1011.35 1011.03
1008.06 1008.28 1008.67 1009.15 1009.61 1009.69 1010.72 1011.63 1012.42 1013.20 1013.70 1014.28 1014.58 1014.83 1014.97 1015.20 1015.44 1015.73 1015.97 1016.13 1016.19 1016.32 1016.44 1016.33 1016.18 1016.18 1015.95 1015.65 1015.26 1014.50 1013.84 1013.48 1013.40 1013.19 1013.11 1013.04 1012.85 1012.43 1012.24 1012.04 1011.87 1011.51 1011.15
1008.25 1008.50 1008.98 1009.37 1009.75 1010.13 1010.75 1011.76 1012.43 1013.21 1014.32 1014.74 1015.14 1015.41 1015.51 1015.65 1015.82 1016.04 1016.43 1016.66 1016.74 1016.74 1016.79 1016.75 1016.68 1016.63 1016.45 1016.12 1016.00 1015.49 1015.07 1014.31 1013.47 1013.54 1013.24 1013.05 1012.87 1012.58 1012.34 1012.02 1011.84 1011.40 1011.11
1008.66 1008.89 1009.19 1009.58 1010.09 1010.48 1011.16 1011.98 1012.97 1013.78 1014.59 1015.35 1015.83 1015.95 1016.16 1016.15 1016.27 1016.49 1016.71 1016.90 1017.08 1017.12 1017.22 1017.13 1017.00 1016.99 1016.94 1016.46 1016.15 1016.16 1016.06 1015.83 1014.66 1013.51 1013.26 1013.12 1012.96 1012.86 1012.59 1012.17 1011.74 1011.35 1011.04
1008.98 1009.21 1009.48 1009.78 1010.27 1010.89 1011.36 1012.17 1012.90 1013.73 1014.89 1015.68 1015.95 1016.25 1016.58 1016.55 1016.70 1016.80 1016.94 1017.09 1017.28 1017.42 1017.48 1017.41 1017.19 1017.07 1016.94 1016.95 1016.53 1016.32 1016.48 1016.43 1016.09 1014.41 1013.56 1013.14 1013.05 1012.78 1012.41 1012.01 1011.61 1011.25 1010.84
1009.06 1009.54 1009.93 1010.16 1010.65 1011.23 1011.65 1012.30 1013.20 1014.18 1014.93 1015.62 1016.19 1016.60 1016.84 1017.08 1017.02 1017.07 1017.19 1017.32 1017.55 1017.67 1017.63 1017.55 1017.37 1017.25 1017.06 1017.03 1016.97 1016.74 1016.48 1016.25 1016.09 1016.00 1014.15 1013.38 1012.91 1012.41 1012.00 1011.65 1011.34 1010.94 1010.48
1009.45 1009.90 1010.35 1010.57 1011.26 1011.65 1012.05 1012.68 1013.51 1014.38 1015.22 1015.95 1016.64 1016.97 1017.21 1017.30 1017.38 1017.39 1017.47 1017.59 1017.63 1017.71 1017.67 1017.58 1017.43 1017.22 1017.16 1017.03 1016.99 1016.90 1016.72 1016.56 1016.01 1015.60 1014.52 1013.55 1012.88 1012.19 1011.72 1011.37 1010.92 1010.52 1010.12
Thickness
5760 5763 5762 5759 5756 5754 5752 5747 5744 5741 5739 5738 5738 5736 5733 5732 5731 5730 5730 5729 5729 5729 5730 5729 5731 5732 5731 5731 5730 5729 5728 5728 5727 5726 5724 5722 5721 5721 5720 5720 5718 5715 5716
5765 5761 5759 5756 5753 5751 5749 5745 5742 5739 5737 5734 5734 5734 5732 5731 5730 5728 5726 5725 5726 5725 5725 5726 5726 5725 5724 5724 5724 5724 5723 5723 5723 5722 5721 5719 5719 5718 5717 5718 5717 5715 5715
5761 5758 5756 5752 5750 5748 5745 5742 5740 5737 5736 5733 5730 5730 5730 5729 5727 5724 5724 5722 5721 5721 5721 5721 5720 5720 5719 5718 5718 5719 5719 5718 5717 5716 5716 5714 5714 5715 5715 5715 5714 5714 5714
5759 5755 5754 5749 5746 5744 5742 5740 5738 5736 5733 5731 5729 5729 5728 5726 5724 5722 5720 5719 5719 5717 5717 5716 5716 5715 5715 5714 5714 5713 5714 5713 5712 5712 5711 5711 5710 5712 5714 5713 5710 5710 5711
5754 5752 5749 5746 5743 5740 5740 5738 5736 5733 5731 5728 5726 5725 5725 5725 5724 5721 5719 5717 5717 5715 5714 5712 5712 5711 5711 5710 5710 5710 5709 5709 5708 5708 5707 5707 5708 5709 5710 5710 5707 5706 5707
5750 5748 5745 5742 5741 5739 5737 5736 5732 5732 5728 5726 5724 5722 5722 5723 5722 5719 5719 5717 5714 5712 5710 5710 5709 5709 5708 5707 5706 5705 5704 5704 5703 5703 5703 5703 5702 5705 5706 5706 5705 5703 5702
5745 5744 5743 5739 5738 5735 5734 5733 5730 5729 5728 5722 5722 5720 5721 5722 5722 5718 5716 5714 5711 5710 5708 5707 5707 5705 5705 5704 5703 5702 5701 5701 5700 5699 5699 5699 5698 5699 5702 5703 5701 5700 5700
5744 5740 5738 5736 5735 5733 5732 5730 5728 5727 5725 5721 5720 5719 5719 5719 5718 5715 5712 5710 5709 5706 5706 5705 5704 5702 5702 5701 5700 5700 5699 5698 5697 5697 5696 5696 5696 5697 5697 5698 5697 5696 5695
5741 5739 5735 5733 5733 5731 5729 5727 5725 5723 5722 5721 5718 5718 5716 5716 5714 5711 5709 5706 5705 5702 5702 5701 5700 5699 5699 5698 5697 5697 5696 5695 5694 5693 5693 5693 5694 5694 5694 5694 5694 5694 5691
5736 5736 5733 5731 5730 5728 5728 5726 5722 5720 5720 5721 5717 5715 5716 5713 5711 5708 5705 5702 5701 5699 5698 5697 5696 5695 5695 5695 5694 5693 5691 5692 5691 5690 5689 5689 5690 5690 5690 5689 5689 5688 5686
5730 5731 5732 5728 5726 5726 5725 5723 5721 5718 5719 5718 5715 5714 5713 5709 5708 5705 5702 5700 5699 5697 5697 5695 5693 5692 5691 5690 5690 5689 5689 5688 5687 5686 5685 5686 5685 5685 5685 5684 5684 5682 5681
5726 5727 5727 5728 5725 5724 5721 5721 5719 5718 5717 5714 5712 5712 5708 5707 5704 5703 5700 5695 5695 5694 5694 5691 5690 5689 5688 5687 5687 5685 5684 5684 5682 5680 5680 5680 5680 5681 5680 5680 5678 5677 5677
5733 5727 5726 5725 5723 5722 5720 5718 5717 5715 5713 5711 5709 5708 5704 5702 5700 5697 5694 5691 5691 5690 5689 5687 5685 5684 5683 5681 5679 5678 5677 5676 5675 5674 5673 5672 5672 5672 5673 5674 5674 5673 5673
5725 5728 5726 5723 5722 5721 5719 5717 5716 5712 5710 5707 5706 5704 5701 5699 5697 5692 5690 5688 5686 5684 5682 5679 5677 5675 5673 5671 5669 5668 5667 5666 5665 5665 5664 5664 5664 5664 5665 5665 5667 5670 5671
5725 5726 5725 5724 5721 5719 5716 5715 5712 5710 5709 5706 5702 5700 5698 5696 5692 5687 5683 5680 5678 5677 5674 5672 5668 5666 5664 5662 5661 5659 5657 5656 5656 5657 5656 5656 5656 5656 5655 5657 5658 5660 5663
5726 5725 5723 5720 5720 5718 5714 5711 5709 5708 5706 5702 5700 5697 5694 5691 5685 5678 5675 5670 5667 5667 5665 5662 5659 5656 5653 5652 5651 5650 5648 5647 5648 5647 5646 5645 5646 5644 5645 5647 5646 5648 5648
5724 5723 5719 5716 5716 5715 5710 5707 5706 5705 5701 5696 5695 5691 5687 5682 5674 5668 5665 5661 5658 5659 5657 5654 5651 5648 5644 5643 5641 5642 5641 5640 5639 5637 5636 5634 5634 5633 5632 5633 5633 5634 5634
5720 5718 5715 5714 5710 5708 5707 5704 5701 5696 5693 5689 5685 5681 5676 5669 5663 5660 5655 5652 5651 5650 5647 5644 5639 5636 5632 5630 5630 5631 5630 5630 5628 5626 5624 5623 5623 5621 5620 5620 5618 5619 5619
5712 5711 5708 5707 5706 5703 5700 5695 5692 5687 5685 5679 5674 5670 5662 5658 5654 5651 5646 5643 5641 5638 5635 5631 5627 5624 5620 5620 5622 5623 5622 5620 5617 5615 5613 5612 5610 5608 5607 5606 5605 5603 5603
5706 5704 5703 5700 5699 5699 5692 5685 5680 5676 5671 5668 5662 5657 5653 5648 5645 5641 5636 5633 5631 5627 5622 5620 5616 5613 5611 5609 5613 5614 5613 5610 5607 5605 5603 5602 5599 5596 5594 5592 5591 5588 5586
5698 5696 5694 5693 5691 5693 5684 5678 5672 5665 5661 5654 5651 5645 5643 5639 5635 5630 5626 5621 5618 5614 5609 5607 5604 5600 5599 5599 5600 5601 5602 5601 5598 5597 5592 5588 5584 5582 5579 5575 5571 5569 5568
5690 5689 5687 5686 5684 5682 5678 5670 5665 5660 5649 5645 5639 5634 5632 5629 5625 5620 5615 5609 5605 5601 5596 5593 5590 5587 5585 5584 5583 5583 5584 5585 5589 5583 5579 5575 5571 5567 5563 5559 5555 5553 5550
5680 5679 5679 5678 5674 5673 5668 5663 5655 5648 5641 5633 5627 5624 5620 5618 5614 5609 5604 5598 5592 5587 5583 5580 5578 5576 5572 5570 5570 5566 5560 5559 5571 5575 5571 5563 5559 5552 5548 5544 5540 5536 5533
5671 5671 5672 5670 5667 5663 5661 5655 5651 5644 5632 5624 5620 5615 5611 5607 5602 5598 5593 5587 5581 5576 5572 5569 5568 5565 5562 5558 5554 5551 5543 5537 5533 5545 5555 5551 5542 5538 5532 5528 5523 5519 5515
5664 5662 5661 5660 5658 5654 5652 5647 5640 5630 5624 5616 5610 5605 5600 5595 5591 5587 5581 5576 5571 5566 5562 5558 5556 5552 5550 5545 5540 5536 5530 5523 5515 5507 5521 5524 5527 5524 5519 5513 5505 5500 5494
5654 5652 5651 5652 5646 5644 5641 5636 5630 5622 5614 5607 5599 5593 5588 5583 5579 5575 5570 5566 5562 5557 5553 5549 5545 5542 5537 5532 5525 5519 5513 5506 5505 5498 5501 5501 5497 5499 5496 5493 5487 5480 5472